STARLINK-31964, 59895

Orbit data source: Space-Track

STARLINK-31964, 59895 is a payload satellite owned by SpaceX/Seattle (US) in LEO that was launched on Tue, 28 May 2024 UTC via an FALCON 9 launch vehicle from the Air Force Eastern Test Range (AFETR). Payload-class satellites include a variety of spacecraft equipped with specific instruments for various scientific and technological missions. These include communications satellites like Starlink; space stations such as the ISS; scientific satellites like the Hubble; Earth observation satellites from companies like Planet Labs, Umbra, and HawkEye 360; GPS; miniature CubeSats for education and research; and military/defense satellites.

Loading next visibility...
Identifier
59895, 2024-100L
Orbit
LEO
Country
Flag of USUS
Related business
Manufacturer
SpaceX/Seattle
Mission
Operational Commercial Communications
Bus & Motor
STARLINK V2M, Unknown motor
Mass
730 kg wet, ~700 kg dry
Launch date (UTC)
2024-05-28 (2 years ago)
Launch vehicle
FALCON 9
Launch site
Air Force Eastern Test Range (AFETR)
Object type
Payload
Rocket body
Debris
Shape & HBR
Box + 2 Pan, 17.7 m
Radar Cross Section
33.884 m², Large (>1 m²)

Expand to show TLE details & history
Last TLE update: 12 hours ago

TLE from 12 hours ago
0 STARLINK-31964
1 59895U 24100L   26036.14560756  .00006083  00000-0  23049-3 0  9992
2 59895  42.9983 308.8549 0001361 344.3623  15.7187 15.27564140 96139
Epoch: 2026-02-05T03:29Z
TLE epoch observation values (Epoch: 2026-02-05T03:29:40.493Z)
Latitude
0.00004°
Longitude
121.13419°
Altitude
481.973 km
Speed
7.627 km/s
True Right ascension
20h 35m 25s
True Declination
0° 00' 00"
Sunlit
Object was in daylight at epoch
Visualization orbit readout
Latitude
Unknown
Longitude
Unknown
Altitude
Unknown
Speed
Unknown
Apparent Right ascension
Unknown
Apparent Declination
Unknown
Sunlit
N/A
Visualization observer readout
Local Sidereal Time
17:15:30
Azimuth
Unknown
Elevation
Unknown
Doppler factor
Unknown
Orbital elements
Apogee altitude
485.976 km
Perigee altitude
484.108 km
Semi-major axis
6,863.179 km
Eccentricity
0.00014
Inclination
42.9983°
RAAN
308.8549°
Arg. of periapsis
344.3623°
True anomaly
15.72293°
Mean anomaly
15.7187°
Eccentric anomaly
15.72081°
Mean motion
3.81729 °/min
Orbital period
94.31 mins
BSTAR
0.00023049
Loading maneuver chart data...
Computing Atmospheric mass density...
Loading historical data...
Loading historical data...
Loading historical data...
Loading historical data...
Loading historical data...
Loading historical data...
Loading historical data...

Documentation

Showing up to 5 results
|